Tracking 20382 objects as of 24-Feb-2020
HD Live streaming from Space Station
objects crossing your sky now
Track the group of recently launched Starlink satellites

GONETS D1 7

Track GONETS D1 7 now!
10-day predictions
GONETS D1 7 is classified as:


NORAD ID: 27058
Int'l Code: 2001-058D
Perigee: 1,419.4 km
Apogee: 1,424.0 km
Inclination: 82.5 °
Period: 114.1 minutes
Semi major axis: 7792 km
RCS: 0.883 m2 (medium)
Launch date: December 28, 2001
Source: Commonwealth of Independent States (former USSR) (CIS)
Launch site: PLESETSK MISSILE AND SPACE COMPLEX (PKMTR)
aabbcc
Your satellite tracking list
Your tracking list is empty




NASA's NSSDC Master Catalog

Two Line Element Set (TLE):
1 27058U 01058D   20055.51774902  .00000055  00000-0  24973-3 0  9991
2 27058  82.5306 240.3216 0002948 166.5411 193.5763 12.62024799836578
Source of the keplerian elements: AFSPC